Location: The Stocker AstroScience Center
(25.7579°N, 80.3725°W)
Time: 23:48:17
(UTC-04:00)

ISS - All Passes

Search period start: 22 October 2014 00:00
Search period end: 01 November 2014 00:00
Orbit: 413 x 416 km, 51.6° (Epoch: 22 October)

Date Brightness Start Highest point End Pass type
(mag) Time Alt. Az. Time Alt. Az. Time Alt. Az.
22 Oct - 13:09:02 10° SW 13:12:20 80° SE 13:15:40 10° NE daylight
22 Oct - 21:20:59 10° NNW 21:23:44 23° NE 21:26:28 10° E night (unlit)
22 Oct - 22:57:57 10° W 23:00:15 18° SW 23:02:33 10° S night (unlit)
23 Oct - 12:20:18 10° SSW 12:23:20 33° SE 12:26:22 10° ENE daylight
23 Oct - 13:58:14 10° WNW 14:00:04 14° NW 14:01:54 10° N daylight
23 Oct - 20:32:53 10° N 20:34:30 13° NE 20:36:06 10° ENE visible
23 Oct - 22:08:10 10° WNW 22:11:17 37° SW 22:14:22 10° SSE night (unlit)
24 Oct - 11:32:14 10° SSE 11:34:20 16° SE 11:36:26 10° E daylight
24 Oct - 13:08:00 10° WSW 13:10:49 25° NW 13:13:39 10° NNE daylight
24 Oct - 21:18:52 10° NW 21:22:12 90° SW 21:25:31 10° SE visible
25 Oct - 12:18:22 10° SW 12:21:37 53° NW 12:24:52 10° NNE daylight
25 Oct - 20:29:53 10° NNW 20:33:02 39° NE 20:36:10 10° ESE visible
26 Oct - 11:29:10 10° SSW 11:32:26 64° SE 11:35:44 10° NE daylight
26 Oct - 19:41:12 10° N 19:43:44 20° NE 19:46:16 10° E visible
26 Oct - 21:17:44 10° WNW 21:20:19 21° SW 21:22:53 10° S visible
27 Oct - 10:40:26 10° S 10:43:17 27° SE 10:46:10 10° ENE daylight
27 Oct - 12:17:48 10° W 12:19:57 16° NW 12:22:07 10° N daylight
27 Oct - 18:53:18 10° NNE 18:54:19 11° NE 18:55:21 10° ENE daylight
27 Oct - 20:27:58 10° NW 20:31:10 46° SW 20:34:21 10° SSE visible
28 Oct - 09:52:32 10° SSE 09:54:09 13° SE 09:55:47 10° E daylight
28 Oct - 11:27:37 10° WSW 11:30:34 30° NW 11:33:33 10° NNE daylight
28 Oct - 19:38:36 10° NW 19:41:55 73° NE 19:45:13 10° SE visible
29 Oct - 10:37:57 10° SW 10:41:14 67° NW 10:44:32 10° NE daylight
29 Oct - 18:49:33 10° NNW 18:52:34 32° NE 18:55:35 10° ESE daylight
29 Oct - 20:27:34 10° W 20:28:58 12° SW 20:30:22 10° SSW visible
30 Oct - 09:48:43 10° SSW 09:51:55 50° SE 09:55:09 10° NE daylight
30 Oct - 11:28:07 10° NW 11:28:47 10° NW 11:29:27 10° NNW daylight
30 Oct - 18:00:51 10° N 18:03:07 17° NE 18:05:22 10° E daylight
30 Oct - 19:36:56 10° WNW 19:39:45 26° SW 19:42:33 10° S visible
31 Oct - 09:00:00 10° S 09:02:38 22° SE 09:05:17 10° ENE daylight
31 Oct - 10:36:47 10° W 10:39:13 19° NW 10:41:40 10° N daylight
31 Oct - 18:47:09 10° NW 18:50:26 59° SW 18:53:41 10° SSE daylight
